This is the latest recevied weather packets stored in our database for station/object KF4WSW-13. If no packets are shown the sender has not sent any weather packets the latest 10 day(s).
| Time | Temp. | Humidity | Pressure | Rain* | Wind** | Luminosity | Snow |
|---|---|---|---|---|---|---|---|
| 1777900109 | 21.67° C | 70% | 1015 hPa | 0 mm | - | 325 W/m² | - |
| 1777899805 | 21.67° C | 72% | 1015.1 hPa | 0 mm | - | 312 W/m² | - |
| 1777899502 | 21.67° C | 72% | 1015 hPa | 0 mm | - | 293 W/m² | - |
| 1777899200 | 21.11° C | 72% | 1015 hPa | 0 mm | - | 274 W/m² | - |
| 1777898897 | 21.11° C | 71% | 1015 hPa | 0 mm | - | 259 W/m² | - |
| 1777898594 | 21.11° C | 72% | 1015.1 hPa | 0 mm | - | 242 W/m² | - |
| 1777898291 | 20.56° C | 73% | 1015 hPa | 0 mm | - | 225 W/m² | - |
| 1777897988 | 20.56° C | 73% | 1014.9 hPa | 0 mm | - | 214 W/m² | - |
| 1777897684 | 20.56° C | 75% | 1015.1 hPa | 0 mm | - | 193 W/m² | - |
| 1777897381 | 20.56° C | 74% | 1015 hPa | 0 mm | - | 177 W/m² | - |
| 1777897077 | 20° C | 75% | 1014.9 hPa | 0 mm | - | 163 W/m² | - |
| 1777896774 | 20° C | 75% | 1014.8 hPa | 0 mm | - | 147 W/m² | - |
| 1777896471 | 20° C | 77% | 1014.7 hPa | 0 mm | - | 133 W/m² | - |
| 1777896168 | 19.44° C | 76% | 1014.9 hPa | 0 mm | - | 120 W/m² | - |
| 1777895866 | 19.44° C | 77% | 1014.7 hPa | 0 mm | - | 106 W/m² | - |
| 1777895563 | 19.44° C | 77% | 1014.8 hPa | 0 mm | - | 92 W/m² | - |
| 1777895261 | 19.44° C | 78% | 1014.7 hPa | 0 mm | - | 81 W/m² | - |
| 1777894958 | 18.89° C | 79% | 1014.8 hPa | 0 mm | - | 69 W/m² | - |
| 1777894655 | 18.89° C | 80% | 1014.6 hPa | 0 mm | - | 59 W/m² | - |
| 1777894352 | 18.89° C | 79% | 1014.5 hPa | 0 mm | - | 48 W/m² | - |
| 1777894050 | 18.33° C | 80% | 1014.6 hPa | 0 mm | - | 40 W/m² | - |
| 1777893746 | 18.33° C | 80% | 1014.7 hPa | 0 mm | - | 32 W/m² | - |
| 1777893443 | 18.33° C | 81% | 1014.3 hPa | 0 mm | - | 25 W/m² | - |
| 1777893139 | 18.33° C | 82% | 1014.5 hPa | 0 mm | - | 20 W/m² | - |
| 1777892836 | 17.78° C | 82% | 1014.4 hPa | 0 mm | - | 15 W/m² | - |
* Rain latest hour (hover to see other rain measurements)
** Current wind speed in m/s (hover to see current wind gust speed)